Home > Time Zones > World Clock > Weather > Italy > Genoa > Past weeks

Flag for Italy Weather past 2 weeks in Genoa, Italy

Now
70 °F

Passing clouds.


Feels Like: 70 °F
Forecast: 68 / 80 °F
Wind: 6 mph from Northeast

Location: Genova / Sestri

Current Time: Jul 26, 2014 at 7:16:50 AM

Latest Report: Jul 26, 2014 at 6:50 AM


Visibility: N/A

Pressure: 29.83 "Hg

Humidity: 83%

Dew point: 64 °F

Location of GenoaLocation

Historic Weather in Genoa — Graph

°F

Genoa temperature yesterday

Maximum temperature yesterday: 79 °F (at 11:50 AM)
Minimum temperature yesterday: 70 °F (at 2:20 AM)
Average temperature yesterday: 74 °F

Past Weeks' High & Low Weather Summary

 TemperatureHumidityPressure
High86 °F (Jul 20, 2:20 PM)94% (Jul 14, 4:50 AM)30.09 "Hg (Jul 14, 4:50 AM)
Low64 °F (Jul 11, 5:20 AM)40% (Jul 20, 2:20 PM)29.74 "Hg (Jul 21, 7:20 AM)
Average74 °F73%29.92 "Hg
* Reported Jul 11 5:20 AM — Jul 26 5:50 AM, Genoa, Weather by CustomWeather, © 2014

Note: Actual official high and low records may vary slightly from our data, if they occured in-between our weather recording intervals... More about our weather records

Advertising

Genoa weather history for previous 24 hours

 ConditionsComfort  
Time TempWeatherWind HumidityBarometerVisibility
5:50 AM
Jul 26
72 °FPartly cloudy.2 mph83%29.86 "HgN/A
5:20 AM72 °FPartly cloudy.3 mph83%29.83 "HgN/A
4:50 AM72 °FThunderstorms. Partly cloudy.3 mph83%29.83 "HgN/A
4:20 AM70 °FThunderstorms. Partly cloudy.5 mph88%29.83 "HgN/A
3:50 AM70 °FThunderstorms. Partly cloudy.15 mph88%29.86 "HgN/A
3:20 AM72 °FThunderstorms. Partly cloudy.8 mph88%29.86 "HgN/A
2:50 AM73 °FThunderstorms. Partly cloudy.3 mph89%29.86 "HgN/A
2:20 AM73 °FPassing clouds.2 mph89%29.86 "HgN/A
1:50 AM73 °FPassing clouds.3 mph83%29.89 "HgN/A
1:20 AM75 °FPassing clouds.2 mph78%29.89 "HgN/A
12:50 AM75 °FPassing clouds.5 mph78%29.89 "HgN/A
12:20 AM75 °FPassing clouds.3 mph78%29.89 "HgN/A
11:50 PM
Jul 25
75 °FPassing clouds.3 mph74%29.89 "HgN/A
11:20 PM75 °FPassing clouds.5 mph78%29.89 "HgN/A
10:50 PM75 °FPassing clouds.2 mph78%29.89 "HgN/A
10:20 PM75 °FPartly cloudy.5 mph78%29.92 "HgN/A
9:50 PM75 °FBroken clouds.1 mph78%29.89 "HgN/A
9:20 PM75 °FBroken clouds.3 mph78%29.89 "HgN/A
8:50 PM75 °FScattered clouds.2 mph78%29.89 "HgN/A
8:20 PM75 °FScattered clouds.5 mph78%29.89 "HgN/A
7:50 PM75 °FScattered clouds.6 mph78%29.89 "HgN/A
7:20 PM75 °FScattered clouds.7 mph78%29.89 "HgN/A
6:50 PM75 °FScattered clouds.6 mph83%29.89 "HgN/A
6:20 PM75 °FScattered clouds.2 mph83%29.89 "HgN/A
5:50 PM75 °FScattered clouds.3 mph78%29.92 "HgN/A
5:20 PM77 °FPassing clouds.5 mph74%29.89 "HgN/A
4:50 PM77 °FPassing clouds.5 mph74%29.89 "HgN/A
4:20 PM77 °FPassing clouds.3 mph74%29.92 "HgN/A
3:50 PM77 °FPassing clouds.3 mph79%29.92 "HgN/A
3:20 PM79 °FPassing clouds.3 mph70%29.92 "HgN/A
2:50 PM79 °FPassing clouds.6 mph70%29.95 "HgN/A
2:20 PM79 °FPassing clouds.5 mph70%29.92 "HgN/A
1:50 PM79 °FPassing clouds.3 mph65%29.92 "HgN/A
1:20 PM79 °FPassing clouds.5 mph70%29.95 "HgN/A
12:50 PM77 °FPassing clouds.5 mph74%29.92 "HgN/A
12:20 PM77 °FPassing clouds.5 mph74%29.92 "HgN/A
11:50 AM79 °FPassing clouds.5 mph70%29.92 "HgN/A
11:20 AM77 °FPassing clouds.5 mph69%29.92 "HgN/A
10:50 AM77 °FPassing clouds.5 mph69%29.92 "HgN/A
10:20 AM75 °FPassing clouds.5 mph74%29.92 "HgN/A
9:50 AM77 °FPassing clouds.5 mph69%29.92 "HgN/A
9:20 AM75 °FPassing clouds.6 mph74%29.92 "HgN/A
8:50 AM75 °FPassing clouds.6 mph69%29.92 "HgN/A
8:20 AM73 °FPassing clouds.6 mph69%29.92 "HgN/A
7:50 AM72 °FPassing clouds.6 mph73%29.92 "HgN/A
7:20 AM70 °FScattered clouds.6 mph78%29.92 "HgN/A
Weather by CustomWeather, © 2014

See weather overviewHow to use our weather pages